Time,TemperatureF,DewpointF,PressureIn,WindDirection,WindDirectionDegrees,WindSpeedMPH,WindSpeedGustMPH,Humidity,HourlyPrecipIn,Conditions,Clouds,dailyrainin,SolarRadiationWatts/m^2,SoftwareType,DateUTC
2013-03-29 00:00:00,51.9,41.3,30.27,East,96,3.0,3.0,67,0.00,,,0.00,0,Wunderground v.1.15,2013-03-29 05:00:00,
2013-03-29 00:10:00,51.4,41.2,30.27,East,89,1.0,1.0,68,0.00,,,0.00,0,Wunderground v.1.15,2013-03-29 05:10:00,
2013-03-29 00:20:00,51.2,41.4,30.26,ESE,103,2.0,2.0,69,0.00,,,0.00,0,Wunderground v.1.15,2013-03-29 05:20:00,
2013-03-29 00:25:00,50.8,42.1,30.27,ESE,107,2.0,2.0,72,0.00,,,0.00,0,Wunderground v.1.15,2013-03-29 05:25:00,
2013-03-29 00:35:00,49.5,42.9,30.26,ESE,121,1.0,2.0,78,0.25,,,0.04,0,Wunderground v.1.15,2013-03-29 05:35:00,
2013-03-29 00:45:00,48.8,43.2,30.27,ENE,74,1.0,2.0,81,0.08,,,0.05,0,Wunderground v.1.15,2013-03-29 05:45:00,
2013-03-29 00:55:00,48.7,43.8,30.27,North,5,3.0,3.0,83,0.00,,,0.05,0,Wunderground v.1.15,2013-03-29 05:55:00,
2013-03-29 01:00:00,48.4,43.5,30.27,NE,34,3.0,5.0,83,0.00,,,0.05,0,Wunderground v.1.15,2013-03-29 06:00:00,
2013-03-29 01:05:00,48.4,42.8,30.27,NE,46,4.0,5.0,81,0.00,,,0.05,0,Wunderground v.1.15,2013-03-29 06:05:00,
2013-03-29 01:15:00,48.4,42.5,30.27,ENE,73,3.0,5.0,80,0.00,,,0.05,0,Wunderground v.1.15,2013-03-29 06:15:00,
2013-03-29 01:25:00,48.3,42.4,30.28,NNW,327,4.0,10.0,80,0.00,,,0.05,0,Wunderground v.1.15,2013-03-29 06:25:00,
2013-03-29 01:30:00,48.1,42.2,30.29,North,5,6.0,6.0,80,0.00,,,0.05,0,Wunderground v.1.15,2013-03-29 06:30:00,
2013-03-29 01:40:00,47.3,42.7,30.29,North,5,3.0,3.0,84,0.11,,,0.07,0,Wunderground v.1.15,2013-03-29 06:40:00,
2013-03-29 01:50:00,46.2,42.5,30.27,South,188,2.0,3.0,87,0.12,,,0.09,0,Wunderground v.1.15,2013-03-29 06:50:00,
2013-03-29 01:55:00,45.9,42.8,30.27,SSE,157,2.0,3.0,89,0.06,,,0.09,0,Wunderground v.1.15,2013-03-29 06:55:00,
2013-03-29 02:05:00,45.9,42.8,30.26,SE,144,4.0,4.0,89,0.00,,,0.09,0,Wunderground v.1.15,2013-03-29 07:05:00,
2013-03-29 02:15:00,45.6,42.5,30.26,NE,41,3.0,4.0,89,0.00,,,0.09,0,Wunderground v.1.15,2013-03-29 07:15:00,
2013-03-29 02:25:00,45.4,42.3,30.26,ENE,67,3.0,3.0,89,0.00,,,0.09,0,Wunderground v.1.15,2013-03-29 07:25:00,
2013-03-29 02:30:00,45.5,42.2,30.27,NE,43,4.0,7.0,88,0.00,,,0.09,0,Wunderground v.1.15,2013-03-29 07:30:00,
2013-03-29 02:40:00,45.8,41.9,30.27,NE,45,3.0,3.0,86,0.00,,,0.09,0,Wunderground v.1.15,2013-03-29 07:40:00,
2013-03-29 02:50:00,45.7,41.8,30.26,East,84,3.0,5.0,86,0.00,,,0.09,0,Wunderground v.1.15,2013-03-29 07:50:00,
2013-03-29 03:00:00,45.5,41.6,30.26,East,90,3.0,5.0,86,0.00,,,0.09,0,Wunderground v.1.15,2013-03-29 08:00:00,
2013-03-29 03:10:00,45.0,41.1,30.25,East,79,1.0,2.0,86,0.00,,,0.09,0,Wunderground v.1.15,2013-03-29 08:10:00,
2013-03-29 03:19:00,44.7,41.1,30.26,ESE,109,1.0,1.0,87,0.00,,,0.09,0,Wunderground v.1.15,2013-03-29 08:19:00,
2013-03-29 03:25:00,44.7,41.4,30.26,ESE,109,0.0,1.0,88,0.00,,,0.09,0,Wunderground v.1.15,2013-03-29 08:25:00,
2013-03-29 03:35:00,44.6,41.3,30.26,East,96,0.0,2.0,88,0.00,,,0.09,0,Wunderground v.1.15,2013-03-29 08:35:00,
2013-03-29 03:45:00,44.0,41.0,30.25,East,85,1.0,3.0,89,0.00,,,0.09,0,Wunderground v.1.15,2013-03-29 08:45:00,
2013-03-29 03:55:00,43.4,40.7,30.25,NNE,32,2.0,2.0,90,0.00,,,0.09,0,Wunderground v.1.15,2013-03-29 08:55:00,
2013-03-29 04:04:00,43.7,40.7,30.25,NE,42,4.0,4.0,89,0.00,,,0.09,0,Wunderground v.1.15,2013-03-29 09:04:00,
2013-03-29 04:10:00,43.7,40.7,30.25,ENE,58,3.0,3.0,89,0.00,,,0.09,0,Wunderground v.1.15,2013-03-29 09:10:00,
2013-03-29 04:20:00,43.4,40.1,30.25,NNE,32,3.0,3.0,88,0.00,,,0.09,0,Wunderground v.1.15,2013-03-29 09:20:00,
2013-03-29 04:29:00,43.0,40.0,30.25,NE,51,2.0,4.0,89,0.00,,,0.09,0,Wunderground v.1.15,2013-03-29 09:29:00,
2013-03-29 04:39:00,42.9,39.6,30.25,ENE,58,3.0,3.0,88,0.00,,,0.09,0,Wunderground v.1.15,2013-03-29 09:39:00,
2013-03-29 04:49:00,42.7,39.4,30.25,NE,49,2.0,2.0,88,0.00,,,0.09,0,Wunderground v.1.15,2013-03-29 09:49:00,
2013-03-29 04:54:00,42.5,39.2,30.25,NE,49,2.0,2.0,88,0.00,,,0.09,0,Wunderground v.1.15,2013-03-29 09:54:00,
2013-03-29 05:04:00,42.3,38.7,30.26,ENE,59,2.0,5.0,87,0.00,,,0.09,0,Wunderground v.1.15,2013-03-29 10:04:00,
2013-03-29 05:14:00,42.1,38.5,30.26,NE,54,3.0,4.0,87,0.00,,,0.09,0,Wunderground v.1.15,2013-03-29 10:14:00,
2013-03-29 05:24:00,41.9,38.3,30.26,NE,55,4.0,4.0,87,0.00,,,0.09,0,Wunderground v.1.15,2013-03-29 10:24:00,
2013-03-29 05:29:00,41.7,38.1,30.26,ENE,76,3.0,4.0,87,0.00,,,0.09,0,Wunderground v.1.15,2013-03-29 10:29:00,
2013-03-29 05:39:00,41.5,37.9,30.26,ENE,61,3.0,3.0,87,0.00,,,0.09,0,Wunderground v.1.15,2013-03-29 10:39:00,
2013-03-29 05:49:00,41.4,37.8,30.27,East,80,3.0,3.0,87,0.00,,,0.09,0,Wunderground v.1.15,2013-03-29 10:49:00,
2013-03-29 05:59:00,41.1,37.8,30.27,ENE,59,2.0,2.0,88,0.00,,,0.09,0,Wunderground v.1.15,2013-03-29 10:59:00,
2013-03-29 06:04:00,41.0,37.7,30.27,ENE,77,2.0,2.0,88,0.00,,,0.09,0,Wunderground v.1.15,2013-03-29 11:04:00,
2013-03-29 06:14:00,40.9,37.6,30.27,ENE,67,2.0,3.0,88,0.00,,,0.09,0,Wunderground v.1.15,2013-03-29 11:14:00,
2013-03-29 06:19:00,40.7,37.4,30.27,NE,36,3.0,3.0,88,0.00,,,0.09,0,Wunderground v.1.15,2013-03-29 11:19:00,
2013-03-29 06:29:00,40.3,37.3,30.28,NE,37,2.0,2.0,89,0.00,,,0.09,0,Wunderground v.1.15,2013-03-29 11:29:00,
2013-03-29 06:39:00,40.0,37.0,30.28,ENE,59,3.0,3.0,89,0.00,,,0.09,0,Wunderground v.1.15,2013-03-29 11:39:00,
2013-03-29 06:49:00,40.1,37.1,30.28,ENE,61,2.0,2.0,89,0.00,,,0.09,0,Wunderground v.1.15,2013-03-29 11:49:00,
2013-03-29 06:54:00,40.0,36.7,30.28,ENE,64,1.0,2.0,88,0.00,,,0.09,0,Wunderground v.1.15,2013-03-29 11:54:00,
2013-03-29 07:04:00,39.8,36.8,30.28,ENE,64,0.0,0.0,89,0.00,,,0.09,5,Wunderground v.1.15,2013-03-29 12:04:00,
2013-03-29 07:14:00,39.7,36.7,30.28,ENE,64,1.0,1.0,89,0.00,,,0.09,14,Wunderground v.1.15,2013-03-29 12:14:00,
2013-03-29 07:20:00,39.6,36.6,30.29,ENE,66,1.0,2.0,89,0.00,,,0.09,19,Wunderground v.1.15,2013-03-29 12:20:00,
2013-03-29 07:25:00,39.8,36.8,30.29,ENE,66,1.0,2.0,89,0.00,,,0.09,25,Wunderground v.1.15,2013-03-29 12:25:00,
2013-03-29 07:35:00,40.1,37.1,30.29,ENE,66,1.0,2.0,89,0.00,,,0.09,54,Wunderground v.1.15,2013-03-29 12:35:00,
2013-03-29 07:45:00,40.5,37.2,30.30,ENE,66,0.0,0.0,88,0.00,,,0.09,81,Wunderground v.1.15,2013-03-29 12:45:00,
2013-03-29 07:55:00,41.2,37.6,30.30,ENE,66,1.0,2.0,87,0.00,,,0.09,105,Wunderground v.1.15,2013-03-29 12:55:00,
2013-03-29 08:00:00,41.5,37.9,30.30,ENE,66,1.0,1.0,87,0.00,,,0.09,120,Wunderground v.1.15,2013-03-29 13:00:00,
2013-03-29 08:10:00,42.1,38.5,30.30,ENE,66,1.0,3.0,87,0.00,,,0.09,149,Wunderground v.1.15,2013-03-29 13:10:00,
2013-03-29 08:20:00,42.8,38.6,30.30,ENE,70,2.0,2.0,85,0.00,,,0.09,183,Wunderground v.1.15,2013-03-29 13:20:00,
2013-03-29 08:30:00,43.6,39.1,30.30,ENE,70,0.0,2.0,84,0.00,,,0.09,213,Wunderground v.1.15,2013-03-29 13:30:00,
2013-03-29 08:40:00,44.2,39.7,30.30,ENE,69,2.0,2.0,84,0.00,,,0.09,250,Wunderground v.1.15,2013-03-29 13:40:00,
2013-03-29 08:45:00,44.6,40.1,30.30,ENE,69,1.0,2.0,84,0.00,,,0.09,269,Wunderground v.1.15,2013-03-29 13:45:00,
2013-03-29 08:55:00,45.6,40.4,30.30,ENE,65,1.0,3.0,82,0.00,,,0.09,301,Wunderground v.1.15,2013-03-29 13:55:00,
2013-03-29 09:00:00,46.0,40.8,30.30,ENE,59,1.0,1.0,82,0.00,,,0.09,320,Wunderground v.1.15,2013-03-29 14:00:00,
2013-03-29 09:10:00,46.7,41.2,30.31,ENE,59,1.0,1.0,81,0.00,,,0.09,359,Wunderground v.1.15,2013-03-29 14:10:00,
2013-03-29 09:20:00,47.6,42.1,30.31,ENE,59,1.0,2.0,81,0.00,,,0.09,410,Wunderground v.1.15,2013-03-29 14:20:00,
2013-03-29 09:25:00,48.0,42.1,30.31,ENE,59,2.0,2.0,80,0.00,,,0.09,431,Wunderground v.1.15,2013-03-29 14:25:00,
2013-03-29 09:35:00,48.5,42.6,30.31,NE,56,2.0,2.0,80,0.00,,,0.09,457,Wunderground v.1.15,2013-03-29 14:35:00,
2013-03-29 09:45:00,50.0,43.7,30.31,NE,56,1.0,2.0,79,0.00,,,0.09,489,Wunderground v.1.15,2013-03-29 14:45:00,
2013-03-29 09:55:00,50.7,43.8,30.31,NE,53,1.0,2.0,77,0.00,,,0.09,512,Wunderground v.1.15,2013-03-29 14:55:00,
2013-03-29 10:05:00,51.4,44.4,30.31,East,81,1.0,1.0,77,0.00,,,0.09,555,Wunderground v.1.15,2013-03-29 15:05:00,
2013-03-29 10:10:00,51.9,45.3,30.31,East,82,1.0,1.0,78,0.00,,,0.09,545,Wunderground v.1.15,2013-03-29 15:10:00,
2013-03-29 10:20:00,53.0,46.0,30.31,ENE,57,1.0,2.0,77,0.00,,,0.09,580,Wunderground v.1.15,2013-03-29 15:20:00,
2013-03-29 10:30:00,53.5,46.1,30.31,ENE,60,2.0,2.0,76,0.00,,,0.09,640,Wunderground v.1.15,2013-03-29 15:30:00,
2013-03-29 10:40:00,53.9,46.2,30.32,NE,55,3.0,3.0,75,0.00,,,0.09,664,Wunderground v.1.15,2013-03-29 15:40:00,
2013-03-29 10:45:00,54.5,47.1,30.31,East,79,2.0,3.0,76,0.00,,,0.09,650,Wunderground v.1.15,2013-03-29 15:45:00,
2013-03-29 10:55:00,55.4,47.2,30.31,NE,56,2.0,5.0,74,0.00,,,0.09,707,Wunderground v.1.15,2013-03-29 15:55:00,
2013-03-29 11:05:00,55.7,46.4,30.31,NE,51,4.0,5.0,71,0.00,,,0.09,733,Wunderground v.1.15,2013-03-29 16:05:00,
2013-03-29 11:10:00,56.0,46.0,30.31,East,86,5.0,5.0,69,0.00,,,0.09,731,Wunderground v.1.15,2013-03-29 16:10:00,
2013-03-29 11:20:00,56.8,46.0,30.31,ENE,65,5.0,8.0,67,0.00,,,0.09,758,Wunderground v.1.15,2013-03-29 16:20:00,
2013-03-29 11:25:00,57.2,45.5,30.31,ENE,71,6.0,8.0,65,0.00,,,0.09,768,Wunderground v.1.15,2013-03-29 16:25:00,
2013-03-29 11:35:00,57.4,46.1,30.31,ENE,62,7.0,7.0,66,0.00,,,0.09,786,Wunderground v.1.15,2013-03-29 16:35:00,
2013-03-29 11:45:00,58.1,46.4,30.31,ENE,60,6.0,9.0,65,0.00,,,0.09,795,Wunderground v.1.15,2013-03-29 16:45:00,
2013-03-29 11:55:00,58.7,47.0,30.31,East,96,6.0,9.0,65,0.00,,,0.09,817,Wunderground v.1.15,2013-03-29 16:55:00,
2013-03-29 12:04:00,59.3,46.3,30.31,NE,41,6.0,8.0,62,0.00,,,0.09,833,Wunderground v.1.15,2013-03-29 17:04:00,
2013-03-29 12:10:00,59.3,45.8,30.31,ENE,63,7.0,9.0,61,0.00,,,0.09,833,Wunderground v.1.15,2013-03-29 17:10:00,
2013-03-29 12:19:00,59.8,45.9,30.30,East,101,8.0,8.0,60,0.00,,,0.09,860,Wunderground v.1.15,2013-03-29 17:19:00,
2013-03-29 12:29:00,60.3,45.5,30.30,NNE,33,7.0,7.0,58,0.00,,,0.09,868,Wunderground v.1.15,2013-03-29 17:29:00,
2013-03-29 12:34:00,60.5,45.6,30.29,East,80,7.0,9.0,58,0.00,,,0.09,863,Wunderground v.1.15,2013-03-29 17:34:00,
2013-03-29 12:44:00,60.8,45.5,30.29,East,87,8.0,8.0,57,0.00,,,0.09,868,Wunderground v.1.15,2013-03-29 17:44:00,
2013-03-29 12:49:00,61.2,45.4,30.29,NE,53,7.0,8.0,56,0.00,,,0.09,879,Wunderground v.1.15,2013-03-29 17:49:00,
2013-03-29 12:59:00,61.7,44.9,30.29,ENE,71,7.0,7.0,54,0.00,,,0.09,882,Wunderground v.1.15,2013-03-29 17:59:00,
2013-03-29 13:09:00,62.2,45.8,30.29,ENE,63,6.0,9.0,55,0.00,,,0.09,874,Wunderground v.1.15,2013-03-29 18:09:00,
2013-03-29 13:19:00,62.4,46.0,30.28,NE,38,7.0,8.0,55,0.00,,,0.09,882,Wunderground v.1.15,2013-03-29 18:19:00,
2013-03-29 13:29:00,62.9,46.5,30.28,East,86,6.0,7.0,55,0.00,,,0.09,875,Wunderground v.1.15,2013-03-29 18:29:00,
2013-03-29 13:39:00,63.3,45.4,30.28,ENE,74,6.0,6.0,52,0.00,,,0.09,888,Wunderground v.1.15,2013-03-29 18:39:00,
2013-03-29 13:49:00,63.5,45.6,30.27,ENE,77,5.0,5.0,52,0.00,,,0.09,891,Wunderground v.1.15,2013-03-29 18:49:00,
2013-03-29 13:54:00,63.4,45.5,30.27,ENE,78,6.0,7.0,52,0.00,,,0.09,879,Wunderground v.1.15,2013-03-29 18:54:00,
2013-03-29 14:04:00,63.5,43.4,30.27,NNE,23,7.0,9.0,48,0.00,,,0.09,868,Wunderground v.1.15,2013-03-29 19:04:00,
2013-03-29 14:14:00,64.0,45.0,30.27,ESE,119,7.0,8.0,50,0.00,,,0.09,896,Wunderground v.1.15,2013-03-29 19:14:00,
2013-03-29 14:19:00,64.4,44.8,30.27,East,85,6.0,8.0,49,0.00,,,0.09,870,Wunderground v.1.15,2013-03-29 19:19:00,
2013-03-29 14:29:00,64.4,44.3,30.26,NE,53,6.0,8.0,48,0.00,,,0.09,810,Wunderground v.1.15,2013-03-29 19:29:00,
2013-03-29 14:39:00,64.4,42.0,30.26,East,82,6.0,6.0,44,0.00,,,0.09,724,Wunderground v.1.15,2013-03-29 19:39:00,
2013-03-29 14:49:00,64.5,41.5,30.26,ENE,62,6.0,6.0,43,0.00,,,0.09,707,Wunderground v.1.15,2013-03-29 19:49:00,
2013-03-29 14:59:00,64.5,44.4,30.25,ESE,102,5.0,7.0,48,0.00,,,0.09,803,Wunderground v.1.15,2013-03-29 19:59:00,
2013-03-29 15:04:00,64.8,44.6,30.25,ESE,111,5.0,7.0,48,0.00,,,0.09,779,Wunderground v.1.15,2013-03-29 20:04:00,
2013-03-29 15:15:00,65.0,42.5,30.25,East,98,6.0,6.0,44,0.00,,,0.09,756,Wunderground v.1.15,2013-03-29 20:15:00,
2013-03-29 15:25:00,65.2,40.3,30.24,East,98,5.0,8.0,40,0.00,,,0.09,737,Wunderground v.1.15,2013-03-29 20:25:00,
2013-03-29 15:35:00,65.3,40.3,30.24,East,95,6.0,6.0,40,0.00,,,0.09,677,Wunderground v.1.15,2013-03-29 20:35:00,
2013-03-29 15:45:00,65.3,39.7,30.24,ENE,61,5.0,6.0,39,0.00,,,0.09,693,Wunderground v.1.15,2013-03-29 20:45:00,
2013-03-29 15:55:00,65.7,42.0,30.24,East,88,6.0,8.0,42,0.00,,,0.09,684,Wunderground v.1.15,2013-03-29 20:55:00,
2013-03-29 16:05:00,66.2,39.8,30.23,NE,49,6.0,9.0,38,0.00,,,0.09,661,Wunderground v.1.15,2013-03-29 21:05:00,
2013-03-29 16:15:00,66.0,39.0,30.23,East,87,7.0,9.0,37,0.00,,,0.09,592,Wunderground v.1.15,2013-03-29 21:15:00,
2013-03-29 16:25:00,65.7,39.4,30.23,East,86,7.0,9.0,38,0.00,,,0.09,598,Wunderground v.1.15,2013-03-29 21:25:00,
2013-03-29 16:30:00,65.9,37.5,30.23,NE,49,7.0,7.0,35,0.00,,,0.09,561,Wunderground v.1.15,2013-03-29 21:30:00,
2013-03-29 16:40:00,65.7,38.0,30.23,ENE,75,6.0,10.0,36,0.00,,,0.09,526,Wunderground v.1.15,2013-03-29 21:40:00,
2013-03-29 16:50:00,65.7,38.0,30.22,ENE,78,7.0,7.0,36,0.00,,,0.09,515,Wunderground v.1.15,2013-03-29 21:50:00,
2013-03-29 16:55:00,65.7,38.7,30.22,ENE,74,6.0,7.0,37,0.00,,,0.09,496,Wunderground v.1.15,2013-03-29 21:55:00,
2013-03-29 17:05:00,65.9,38.9,30.22,ESE,112,6.0,8.0,37,0.00,,,0.09,461,Wunderground v.1.15,2013-03-29 22:05:00,
2013-03-29 17:15:00,65.7,38.7,30.23,East,101,4.0,6.0,37,0.00,,,0.09,431,Wunderground v.1.15,2013-03-29 22:15:00,
2013-03-29 17:25:00,65.4,38.4,30.23,ENE,67,6.0,8.0,37,0.00,,,0.09,396,Wunderground v.1.15,2013-03-29 22:25:00,
2013-03-29 17:35:00,65.4,39.1,30.23,ENE,67,6.0,9.0,38,0.00,,,0.09,355,Wunderground v.1.15,2013-03-29 22:35:00,
2013-03-29 17:40:00,65.6,40.0,30.22,East,86,5.0,8.0,39,0.00,,,0.09,341,Wunderground v.1.15,2013-03-29 22:40:00,
2013-03-29 17:50:00,65.2,39.6,30.22,East,90,6.0,6.0,39,0.00,,,0.09,304,Wunderground v.1.15,2013-03-29 22:50:00,
2013-03-29 17:55:00,65.3,40.3,30.22,East,82,5.0,6.0,40,0.00,,,0.09,283,Wunderground v.1.15,2013-03-29 22:55:00,
2013-03-29 18:05:00,65.0,39.4,30.23,East,82,6.0,8.0,39,0.00,,,0.09,251,Wunderground v.1.15,2013-03-29 23:05:00,
2013-03-29 18:15:00,64.9,40.0,30.23,SE,132,6.0,6.0,40,0.00,,,0.09,216,Wunderground v.1.15,2013-03-29 23:15:00,
2013-03-29 18:25:00,64.6,38.4,30.23,East,89,4.0,5.0,38,0.00,,,0.09,179,Wunderground v.1.15,2013-03-29 23:25:00,
2013-03-29 18:35:00,64.3,38.8,30.22,East,89,5.0,5.0,39,0.00,,,0.09,149,Wunderground v.1.15,2013-03-29 23:35:00,
2013-03-29 18:45:00,64.1,39.3,30.23,East,98,5.0,8.0,40,0.00,,,0.09,116,Wunderground v.1.15,2013-03-29 23:45:00,
2013-03-29 18:55:00,63.5,38.7,30.23,ENE,69,5.0,5.0,40,0.00,,,0.09,81,Wunderground v.1.15,2013-03-29 23:55:00,
2013-03-29 19:05:00,62.9,38.8,30.23,East,91,5.0,6.0,41,0.00,,,0.09,54,Wunderground v.1.15,2013-03-30 00:05:00,
2013-03-29 19:15:00,62.3,38.9,30.23,East,81,5.0,7.0,42,0.00,,,0.09,25,Wunderground v.1.15,2013-03-30 00:15:00,
2013-03-29 19:20:00,61.9,38.5,30.23,East,99,5.0,5.0,42,0.00,,,0.09,19,Wunderground v.1.15,2013-03-30 00:20:00,
2013-03-29 19:30:00,61.3,38.0,30.23,East,99,6.0,6.0,42,0.00,,,0.09,9,Wunderground v.1.15,2013-03-30 00:30:00,
2013-03-29 19:35:00,60.7,38.1,30.23,East,84,5.0,6.0,43,0.00,,,0.09,0,Wunderground v.1.15,2013-03-30 00:35:00,
2013-03-29 19:45:00,60.3,37.7,30.23,ESE,105,6.0,9.0,43,0.00,,,0.09,0,Wunderground v.1.15,2013-03-30 00:45:00,
2013-03-29 19:54:00,59.8,37.2,30.23,East,86,7.0,9.0,43,0.00,,,0.09,0,Wunderground v.1.15,2013-03-30 00:54:00,
2013-03-29 20:04:00,59.4,36.9,30.23,East,83,6.0,7.0,43,0.00,,,0.09,0,Wunderground v.1.15,2013-03-30 01:04:00,
2013-03-29 20:10:00,59.1,37.2,30.23,ENE,75,6.0,7.0,44,0.00,,,0.09,0,Wunderground v.1.15,2013-03-30 01:10:00,
2013-03-29 20:19:00,58.6,37.3,30.23,East,87,5.0,7.0,45,0.00,,,0.09,0,Wunderground v.1.15,2013-03-30 01:19:00,
2013-03-29 20:25:00,58.4,37.1,30.23,ENE,74,5.0,7.0,45,0.00,,,0.09,0,Wunderground v.1.15,2013-03-30 01:25:00,
2013-03-29 20:35:00,58.1,36.9,30.24,ENE,69,6.0,9.0,45,0.00,,,0.09,0,Wunderground v.1.15,2013-03-30 01:35:00,
2013-03-29 20:44:00,57.8,37.1,30.24,East,98,6.0,6.0,46,0.00,,,0.09,0,Wunderground v.1.15,2013-03-30 01:44:00,
2013-03-29 20:54:00,57.6,37.0,30.24,ENE,78,6.0,8.0,46,0.00,,,0.09,0,Wunderground v.1.15,2013-03-30 01:54:00,
2013-03-29 21:04:00,57.2,37.7,30.24,East,101,6.0,6.0,48,0.00,,,0.09,0,Wunderground v.1.15,2013-03-30 02:04:00,
2013-03-29 21:09:00,56.9,37.9,30.24,ENE,74,6.0,6.0,49,0.00,,,0.09,0,Wunderground v.1.15,2013-03-30 02:09:00,
2013-03-29 21:19:00,56.4,38.0,30.24,East,84,4.0,5.0,50,0.00,,,0.09,0,Wunderground v.1.15,2013-03-30 02:19:00,
2013-03-29 21:29:00,56.2,38.3,30.24,East,86,5.0,5.0,51,0.00,,,0.09,0,Wunderground v.1.15,2013-03-30 02:29:00,
2013-03-29 21:34:00,56.1,38.2,30.24,East,92,6.0,7.0,51,0.00,,,0.09,0,Wunderground v.1.15,2013-03-30 02:34:00,
2013-03-29 21:44:00,56.0,38.6,30.24,ESE,117,6.0,7.0,52,0.00,,,0.09,0,Wunderground v.1.15,2013-03-30 02:44:00,
2013-03-29 21:54:00,55.5,38.1,30.24,ESE,105,5.0,5.0,52,0.00,,,0.09,0,Wunderground v.1.15,2013-03-30 02:54:00,
2013-03-29 22:04:00,54.9,38.6,30.24,East,101,5.0,5.0,54,0.00,,,0.09,0,Wunderground v.1.15,2013-03-30 03:04:00,
2013-03-29 22:14:00,54.5,38.7,30.24,ESE,112,5.0,5.0,55,0.00,,,0.09,0,Wunderground v.1.15,2013-03-30 03:14:00,
2013-03-29 22:19:00,54.2,38.4,30.24,ESE,108,6.0,6.0,55,0.00,,,0.09,0,Wunderground v.1.15,2013-03-30 03:19:00,
2013-03-29 22:29:00,53.8,38.5,30.24,ESE,114,5.0,8.0,56,0.00,,,0.09,0,Wunderground v.1.15,2013-03-30 03:29:00,
2013-03-29 22:39:00,53.4,38.5,30.25,East,97,5.0,5.0,57,0.00,,,0.09,0,Wunderground v.1.15,2013-03-30 03:39:00,
2013-03-29 22:49:00,53.0,38.6,30.24,SE,136,3.0,3.0,58,0.00,,,0.09,0,Wunderground v.1.15,2013-03-30 03:49:00,
2013-03-29 22:54:00,52.9,38.5,30.24,ESE,105,3.0,5.0,58,0.00,,,0.09,0,Wunderground v.1.15,2013-03-30 03:54:00,
2013-03-29 23:04:00,52.9,39.0,30.24,SE,137,3.0,4.0,59,0.00,,,0.09,0,Wunderground v.1.15,2013-03-30 04:04:00,
2013-03-29 23:09:00,52.6,39.1,30.24,ESE,120,2.0,4.0,60,0.00,,,0.09,0,Wunderground v.1.15,2013-03-30 04:09:00,
2013-03-29 23:15:00,52.2,39.1,30.24,ESE,115,2.0,4.0,61,0.00,,,0.09,0,Wunderground v.1.15,2013-03-30 04:15:00,
2013-03-29 23:20:00,52.0,39.0,30.24,ESE,113,2.0,3.0,61,0.00,,,0.09,0,Wunderground v.1.15,2013-03-30 04:20:00,
2013-03-29 23:25:00,51.9,38.9,30.24,ESE,118,2.0,3.0,61,0.00,,,0.09,0,Wunderground v.1.15,2013-03-30 04:25:00,
2013-03-29 23:35:00,51.5,38.9,30.23,SE,129,2.0,3.0,62,0.00,,,0.09,0,Wunderground v.1.15,2013-03-30 04:35:00,
2013-03-29 23:45:00,51.2,38.6,30.23,SE,130,2.0,3.0,62,0.00,,,0.09,0,Wunderground v.1.15,2013-03-30 04:45:00,
2013-03-29 23:50:00,51.0,38.4,30.23,ESE,121,3.0,3.0,62,0.00,,,0.09,0,Wunderground v.1.15,2013-03-30 04:50:00,